Regional Weather Roundup
Issued by NWS

Home | Current Version | Previous Version | Graphics & Text | Print | Product List | Glossary On
Versions: 1 2 3 4 5 6 7 8 9 10 11 12 13 14 15 16 17 18 19 20 21 22 23 24 25 26 27 28 29 30 31 32 33 34 35 36 37 38 39 40 41 42 43 44 45 46 47 48 49 50
858
ASUS43 KTOP 290408
RWRKS

WEATHER ROUNDUP FOR KANSAS
NATIONAL WEATHER SERVICE GOODLAND KS
1100 PM CDT SUN MAY 28 2017

NOTE:  "FAIR" INDICATES FEW OR NO CLOUDS BELOW 12,000 FEET WITH NO
SIGNIFICANT WEATHER AND/OR OBSTRUCTIONS TO VISIBILITY.

KSZ001>006-013>018-027>032-041>047-290500-
NORTHWEST KANSAS

CITY           SKY/WX    TMP DP  RH WIND       PRES   REMARKS
GOODLAND       CLOUDY    58  47  66 NW12      30.13R
HAYS           CLEAR     62  52  69 CALM      30.02S
HILL CITY      CLEAR     57  53  86 CALM      30.04R
RUSSELL        CLEAR     65  49  56 CALM      29.99F
$$

KSZ061>065-074>080-084>089-290500-
SOUTHWEST KANSAS

CITY           SKY/WX    TMP DP  RH WIND       PRES   REMARKS
DODGE CITY     CLEAR     61  43  51 SW6       30.07R
ELKHART          N/A     63  36  36 MISG        N/A
GARDEN CITY    CLEAR     57  41  55 S6        30.09R
GREAT BEND     CLEAR     60  51  72 SW8       30.02R
LIBERAL        CLEAR     58  49  72 W7        30.11R
PRATT          CLEAR     58  47  66 W6        30.03S
$$

KSZ066>073-081>083-090>101-290500-
SOUTHEAST KANSAS

CITY           SKY/WX    TMP DP  RH WIND       PRES   REMARKS
CHANUTE        CLEAR     61  51  70 W3        29.95S
COFFEYVILLE    CLEAR     60  55  83 SE6       29.98R
HUTCHINSON     CLEAR     57  50  77 CALM      29.99S
MEDICINE LODGE   N/A     61  49  64 NW3       30.01S
NEWTON         CLEAR     67  47  48 W6        29.99S
PARSONS        CLEAR     58  53  84 CALM      29.97R
WICHITA INTL   CLEAR     63  50  62 NW3       29.98S
WICHITA JABRA  CLEAR     68  45  43 W5        29.97F
WICHITA MCCONL CLEAR     71  42  35 CALM      29.97F
WINFIELD       CLEAR     63  50  62 CALM      30.00R
$$

KSZ007>012-019>026-033>040-048>060-102>105-290500-
NORTHEAST KANSAS

CITY           SKY/WX    TMP DP  RH WIND       PRES   REMARKS
CONCORDIA      CLEAR     63  52  67 W6        29.97R
EMPORIA        CLEAR     65  51  60 W6        29.94S
LAWRENCE       CLEAR     60  57  89 CALM      29.92R
MANHATTAN      PTCLDY    59  55  87 CALM      29.94S
MARYSVILLE     CLEAR     59  48  67 CALM      29.95S
OLATHE IND     CLEAR     68  50  52 SW6       29.92S
OLATHE EXE     CLEAR     65  53  65 SW3       29.92S
SALINA         CLEAR     68  52  56 W6        29.97S
TOPEKA BILLARD CLEAR     66  55  67 W7        29.92R
TOPEKA FORBES  CLEAR     66  52  60 NW5       29.93R
$$




USA.gov is the U.S. government's official web portal to all federal, state and local government web resources and services.